Regional Weather Roundup
Issued by NWS

Home | Current Version | Previous Version | Text Only | Print | Product List | Glossary Off
Versions: 1 2 3 4 5 6 7 8 9 10 11 12 13 14 15 16 17 18 19 20 21 22 23 24 25 26 27 28 29 30 31 32 33 34 35 36 37 38 39 40 41 42 43 44 45 46 47 48 49 50

000
ASUS43 KBIS 301201
RWRND

NORTH DAKOTA REGIONAL WEATHER ROUNDUP
NATIONAL WEATHER SERVICE BISMARCK ND
600 AM CST FRI JAN 30 2015

NOTE: "FAIR" INDICATES FEW OR NO CLOUDS BELOW 12,000 FEET WITH NO
SIGNIFICANT WEATHER AND/OR OBSTRUCTIONS TO VISIBILITY.


NDZ001>003-009>011-017-301300-
NORTHWEST NORTH DAKOTA

CITY           SKY/WX    TMP DP  RH WIND       PRES   REMARKS
WILLISTON      CLEAR     17  13  84 CALM      30.15S
6HR MIN TEMP:  15; 6HR MAX TEMP:  26;

MINOT          CLEAR     22  16  78 S15       30.13F WCI   9
$$

NDZ018>021-031>035-040>046-301300-
SOUTHWEST NORTH DAKOTA

CITY           SKY/WX    TMP DP  RH WIND       PRES   REMARKS
BISMARCK       CLEAR     19  17  92 SE10      30.27F WCI   7
6HR MIN TEMP:  15; 6HR MAX TEMP:  20;

DICKINSON      CLEAR     26  17  68 S10       30.14S WCI  16
GARRISON         N/A     19  17  92 S9        30.17F WCI   8
6HR MIN TEMP:  16; 6HR MAX TEMP:  20;

HETTINGER ARPT CLEAR     22  16  78 S6        30.20F WCI  14
$$

NDZ004>008-012>016-024-026-027-054-301300-
NORTHEAST NORTH DAKOTA

CITY           SKY/WX    TMP DP  RH WIND       PRES   REMARKS
GRAND FORKS    CLOUDY     9   3  77 SE12      30.43F WCI  -6
GRND FRKS AFB  CLOUDY     9   2  74 S15       30.41F WCI  -8
DEVILS LAKE    CLOUDY    16  10  79 SE13      30.26F WCI   2
$$

NDZ022-023-025-028>030-036>039-047>053-301300-
SOUTHEAST NORTH DAKOTA

CITY           SKY/WX    TMP DP  RH WIND       PRES   REMARKS
FARGO          CLOUDY    11   3  70 SE9       30.45F WCI  -2
6HR MIN TEMP:   7; 6HR MAX TEMP:  11;

JAMESTOWN      CLOUDY    20  16  84 S13       30.32F WCI   7
$$



USA.gov is the U.S. government's official web portal to all federal, state and local government web resources and services.